,,,PA_Meas_PMT16A,,PR_Meas_QMR101_102,,RH_Meas_QMH101,,SR_Meas_QMS101,,TA_Meas_QMH101,,GenWind,,GenWind,
date,time,status,PA,status,PR,status,RH,status,SR,status,TA,status,DirAvg,status,SpdAvg,
2011-01-15, 00:00:05,VALID,1009.38,VALID,0,VALID,102.841,VALID,0,VALID,23.2087,VALID,213,VALID,0.0542969,
2011-01-15, 00:01:05,VALID,1009.35,VALID,0,VALID,102.826,VALID,0,VALID,23.1892,VALID,213,VALID,0.0285156,
2011-01-15, 00:02:05,VALID,1009.35,VALID,0,VALID,102.826,VALID,0,VALID,23.1874,VALID,213,VALID,0.189844,
2011-01-15, 00:03:05,VALID,1009.32,VALID,0,VALID,102.887,VALID,0,VALID,23.2087,VALID,213,VALID,0.00195313,
2011-01-15, 00:04:05,VALID,1009.27,VALID,0,VALID,102.91,VALID,0,VALID,23.2069,VALID,213,VALID,0.0757812,
2011-01-15, 00:05:05,VALID,1009.25,VALID,0,VALID,102.887,VALID,0,VALID,23.1874,VALID,243,VALID,0.380859,
2011-01-15, 00:06:05,VALID,1009.27,VALID,0,VALID,102.826,VALID,0,VALID,23.1874,VALID,268,VALID,0.226953,
2011-01-15, 00:07:05,VALID,1009.2,VALID,0,VALID,102.788,VALID,0,VALID,23.1874,VALID,268,VALID,0.164063,
2011-01-15, 00:08:05,VALID,1009.2,VALID,0,VALID,102.711,VALID,0,VALID,23.1874,VALID,268,VALID,0.171094,
2011-01-15, 00:09:05,VALID,1009.15,VALID,0,VALID,102.673,VALID,0,VALID,23.2069,VALID,268,VALID,0.142969,
2011-01-15, 00:10:05,VALID,1009.14,VALID,0,VALID,102.597,VALID,0.105969,VALID,23.2069,VALID,268,VALID,0.216797,
2011-01-15, 00:11:05,VALID,1009.1,VALID,0,VALID,102.528,VALID,0,VALID,23.2069,VALID,321,VALID,0.289844,
2011-01-15, 00:12:05,VALID,1009.1,VALID,0,VALID,102.482,VALID,0,VALID,23.2069,VALID,288,VALID,0.34375,
2011-01-15, 00:13:05,VALID,1009.08,VALID,0,VALID,102.452,VALID,0.105969,VALID,23.1874,VALID,288,VALID,0.25,
2011-01-15, 00:14:05,VALID,1009.03,VALID,0,VALID,102.444,VALID,0,VALID,23.1874,VALID,276,VALID,0.246094,
2011-01-15, 00:15:05,VALID,1009.04,VALID,0,VALID,102.452,VALID,0,VALID,23.1874,VALID,320,VALID,0.00195313,
2011-01-15, 00:16:05,VALID,1009.02,VALID,0,VALID,102.482,VALID,0,VALID,23.1874,VALID,266,VALID,0.262891,
2011-01-15, 00:17:05,VALID,1009.02,VALID,0,VALID,102.528,VALID,0,VALID,23.1874,VALID,255,VALID,0.142969,
2011-01-15, 00:18:05,VALID,1009,VALID,0,VALID,102.536,VALID,0,VALID,23.1679,VALID,255,VALID,0.0511719,
2011-01-15, 00:19:05,VALID,1009,VALID,0,VALID,102.513,VALID,0,VALID,23.1485,VALID,234,VALID,0.566016,
2011-01-15, 00:20:05,VALID,1009.03,VALID,0,VALID,102.467,VALID,0,VALID,23.1697,VALID,226,VALID,0.0496094,
2011-01-15, 00:21:05,VALID,1009.01,VALID,0,VALID,102.452,VALID,0,VALID,23.1485,VALID,226,VALID,0.207422,
2011-01-15, 00:22:05,VALID,1009.05,VALID,0,VALID,102.391,VALID,0,VALID,23.1307,VALID,251,VALID,0.394531,
2011-01-15, 00:23:05,VALID,1009.03,VALID,0,VALID,102.36,VALID,0,VALID,23.129,VALID,251,VALID,0.219141,
2011-01-15, 00:24:05,VALID,1009.01,VALID,0,VALID,102.345,VALID,0,VALID,23.1095,VALID,221,VALID,0.493359,
2011-01-15, 00:25:05,VALID,1008.98,VALID,0,VALID,102.36,VALID,0,VALID,23.1112,VALID,221,VALID,0.230078,
2011-01-15, 00:26:05,VALID,1008.97,VALID,0,VALID,102.36,VALID,0,VALID,23.09,VALID,221,VALID,0,
2011-01-15, 00:27:05,VALID,1008.96,VALID,0,VALID,102.376,VALID,0,VALID,23.09,VALID,221,VALID,0.165625,
2011-01-15, 00:28:05,VALID,1008.94,VALID,0,VALID,102.429,VALID,0,VALID,23.09,VALID,221,VALID,0,
2011-01-15, 00:29:05,VALID,1008.91,VALID,0,VALID,102.406,VALID,0,VALID,23.1112,VALID,221,VALID,0,
2011-01-15, 00:30:05,VALID,1008.9,VALID,0,VALID,102.467,VALID,0,VALID,23.0918,VALID,221,VALID,0,
2011-01-15, 00:31:05,VALID,1008.88,VALID,0,VALID,102.482,VALID,0,VALID,23.0511,VALID,221,VALID,0,
2011-01-15, 00:32:05,VALID,1008.89,VALID,0,VALID,102.49,VALID,0,VALID,23.0723,VALID,216,VALID,0.6625,
2011-01-15, 00:33:05,VALID,1008.85,VALID,0,VALID,102.544,VALID,0,VALID,23.0511,VALID,202,VALID,0.296094,
2011-01-15, 00:34:05,VALID,1008.85,VALID,0,VALID,102.551,VALID,0,VALID,23.0918,VALID,202,VALID,0.242578,
2011-01-15, 00:35:05,VALID,1008.83,VALID,0,VALID,102.605,VALID,0,VALID,23.0723,VALID,202,VALID,0.046875,
2011-01-15, 00:36:05,VALID,1008.84,VALID,0,VALID,102.551,VALID,0,VALID,23.0918,VALID,225,VALID,0.438672,
2011-01-15, 00:37:05,VALID,1008.83,VALID,0,VALID,102.505,VALID,0,VALID,23.0511,VALID,262,VALID,0.0328125,
2011-01-15, 00:38:05,VALID,1008.81,VALID,0,VALID,102.475,VALID,0,VALID,23.0316,VALID,262,VALID,0,
2011-01-15, 00:39:05,VALID,1008.78,VALID,0,VALID,102.49,VALID,0,VALID,23.0121,VALID,262,VALID,0,
2011-01-15, 00:40:05,VALID,1008.76,VALID,0,VALID,102.544,VALID,0,VALID,23.0138,VALID,262,VALID,0.148047,
2011-01-15, 00:41:05,VALID,1008.77,VALID,0,VALID,102.582,VALID,0,VALID,23.0121,VALID,247,VALID,0.330859,
2011-01-15, 00:42:05,VALID,1008.77,VALID,0,VALID,102.627,VALID,0,VALID,22.9926,VALID,247,VALID,0,
2011-01-15, 00:43:05,VALID,1008.76,VALID,0,VALID,102.666,VALID,0,VALID,23.0121,VALID,247,VALID,0.364062,
2011-01-15, 00:44:05,VALID,1008.72,VALID,0,VALID,102.635,VALID,0,VALID,23.0316,VALID,247,VALID,0.261328,
2011-01-15, 00:45:05,VALID,1008.75,VALID,0,VALID,102.62,VALID,0,VALID,23.0316,VALID,247,VALID,0,
2011-01-15, 00:46:05,VALID,1008.72,VALID,0,VALID,102.574,VALID,0,VALID,23.0121,VALID,247,VALID,0,
2011-01-15, 00:47:05,VALID,1008.72,VALID,0,VALID,102.589,VALID,0,VALID,23.0121,VALID,247,VALID,0,
2011-01-15, 00:48:05,VALID,1008.74,VALID,0,VALID,102.635,VALID,0,VALID,23.0138,VALID,247,VALID,0.257031,
2011-01-15, 00:49:05,VALID,1008.69,VALID,0,VALID,102.658,VALID,0,VALID,22.9926,VALID,247,VALID,0,
2011-01-15, 00:50:05,VALID,1008.65,VALID,0,VALID,102.704,VALID,0,VALID,22.9943,VALID,247,VALID,0,
2011-01-15, 00:51:05,VALID,1008.63,VALID,0,VALID,102.734,VALID,0,VALID,22.9749,VALID,247,VALID,0.200781,
2011-01-15, 00:52:05,VALID,1008.6,VALID,0,VALID,102.788,VALID,0,VALID,22.9536,VALID,247,VALID,0,
2011-01-15, 00:53:05,VALID,1008.62,VALID,0,VALID,102.833,VALID,0,VALID,22.9536,VALID,247,VALID,0,
2011-01-15, 00:54:05,VALID,1008.6,VALID,0,VALID,102.871,VALID,0,VALID,22.9536,VALID,247,VALID,0,
2011-01-15, 00:55:05,VALID,1008.61,VALID,0,VALID,102.902,VALID,0,VALID,22.9342,VALID,247,VALID,0,
2011-01-15, 00:56:05,VALID,1008.62,VALID,0,VALID,102.932,VALID,0,VALID,22.9554,VALID,247,VALID,0,
2011-01-15, 00:57:05,VALID,1008.58,VALID,0,VALID,102.955,VALID,0,VALID,22.9359,VALID,260,VALID,0.247656,
2011-01-15, 00:58:05,VALID,1008.58,VALID,0,VALID,102.925,VALID,0,VALID,22.9536,VALID,260,VALID,0,
2011-01-15, 00:59:05,VALID,1008.55,VALID,0,VALID,103.001,VALID,0,VALID,22.9731,VALID,260,VALID,0,
2011-01-15, 01:00:05,VALID,1008.54,VALID,0,VALID,103.1,VALID,0,VALID,22.9731,VALID,260,VALID,0,
2011-01-15, 01:01:05,VALID,1008.54,VALID,0,VALID,103.184,VALID,0,VALID,22.9731,VALID,260,VALID,0,
2011-01-15, 01:02:05,VALID,1008.53,VALID,0,VALID,103.215,VALID,0.105969,VALID,22.9536,VALID,260,VALID,0,
2011-01-15, 01:03:05,VALID,1008.52,VALID,0,VALID,103.222,VALID,0,VALID,22.9536,VALID,260,VALID,0,
2011-01-15, 01:04:05,VALID,1008.55,VALID,0,VALID,103.215,VALID,0,VALID,22.9342,VALID,260,VALID,0,
2011-01-15, 01:05:05,VALID,1008.52,VALID,0,VALID,103.222,VALID,0,VALID,22.9147,VALID,260,VALID,0,
2011-01-15, 01:06:05,VALID,1008.51,VALID,0,VALID,103.207,VALID,0,VALID,22.9147,VALID,260,VALID,0,
2011-01-15, 01:07:05,VALID,1008.49,VALID,0,VALID,103.184,VALID,0,VALID,22.9147,VALID,260,VALID,0,
2011-01-15, 01:08:05,VALID,1008.49,VALID,0,VALID,103.169,VALID,0,VALID,22.9147,VALID,260,VALID,0,
2011-01-15, 01:09:05,VALID,1008.5,VALID,0,VALID,103.192,VALID,0,VALID,22.9342,VALID,260,VALID,0,
2011-01-15, 01:10:05,VALID,1008.48,VALID,0,VALID,103.23,VALID,0,VALID,22.9359,VALID,260,VALID,0,
2011-01-15, 01:11:05,VALID,1008.46,VALID,0,VALID,103.26,VALID,0,VALID,22.9147,VALID,260,VALID,0,
2011-01-15, 01:12:05,VALID,1008.43,VALID,0,VALID,103.298,VALID,0,VALID,22.8757,VALID,260,VALID,0,
2011-01-15, 01:13:05,VALID,1008.43,VALID,0,VALID,103.329,VALID,0,VALID,22.8757,VALID,260,VALID,0,
2011-01-15, 01:14:05,VALID,1008.4,VALID,0,VALID,103.344,VALID,0,VALID,22.8368,VALID,260,VALID,0,
2011-01-15, 01:15:05,VALID,1008.41,VALID,0,VALID,103.367,VALID,0,VALID,22.8173,VALID,260,VALID,0,
2011-01-15, 01:16:05,VALID,1008.39,VALID,0,VALID,103.443,VALID,0,VALID,22.8173,VALID,260,VALID,0,
2011-01-15, 01:17:05,VALID,1008.4,VALID,0,VALID,103.474,VALID,0.105969,VALID,22.7978,VALID,260,VALID,0,
2011-01-15, 01:18:05,VALID,1008.38,VALID,0,VALID,103.512,VALID,0,VALID,22.7783,VALID,260,VALID,0,
2011-01-15, 01:19:05,VALID,1008.37,VALID,0,VALID,103.565,VALID,0,VALID,22.7588,VALID,260,VALID,0,
2011-01-15, 01:20:05,VALID,1008.36,VALID,0,VALID,103.603,VALID,0.105969,VALID,22.7588,VALID,260,VALID,0,
2011-01-15, 01:21:05,VALID,1008.36,VALID,0,VALID,103.619,VALID,0,VALID,22.7588,VALID,260,VALID,0,
2011-01-15, 01:22:05,VALID,1008.39,VALID,0,VALID,103.68,VALID,0,VALID,22.7783,VALID,260,VALID,0,
2011-01-15, 01:23:05,VALID,1008.39,VALID,0,VALID,103.703,VALID,0,VALID,22.7588,VALID,260,VALID,0,
2011-01-15, 01:24:05,VALID,1008.41,VALID,0,VALID,103.726,VALID,0,VALID,22.7588,VALID,260,VALID,0,
2011-01-15, 01:25:05,VALID,1008.43,VALID,0,VALID,103.741,VALID,0,VALID,22.7588,VALID,260,VALID,0,
2011-01-15, 01:26:05,VALID,1008.42,VALID,0,VALID,103.741,VALID,0.105969,VALID,22.7394,VALID,260,VALID,0,
2011-01-15, 01:27:05,VALID,1008.37,VALID,0,VALID,103.741,VALID,0,VALID,22.7004,VALID,260,VALID,0,
2011-01-15, 01:28:05,VALID,1008.39,VALID,0,VALID,103.741,VALID,0,VALID,22.6614,VALID,260,VALID,0,
2011-01-15, 01:29:05,VALID,1008.36,VALID,0,VALID,103.733,VALID,0,VALID,22.642,VALID,260,VALID,0,
2011-01-15, 01:30:05,VALID,1008.36,VALID,0,VALID,103.733,VALID,0,VALID,22.6013,VALID,260,VALID,0,
2011-01-15, 01:31:05,VALID,1008.35,VALID,0,VALID,103.764,VALID,0,VALID,22.6614,VALID,260,VALID,0,
2011-01-15, 01:32:05,VALID,1008.35,VALID,0,VALID,103.794,VALID,0.105969,VALID,22.642,VALID,260,VALID,0,
2011-01-15, 01:33:05,VALID,1008.34,VALID,0,VALID,103.809,VALID,0,VALID,22.642,VALID,260,VALID,0,
2011-01-15, 01:34:05,VALID,1008.35,VALID,0,VALID,103.832,VALID,0,VALID,22.642,VALID,260,VALID,0,
2011-01-15, 01:35:05,VALID,1008.36,VALID,0,VALID,103.863,VALID,0,VALID,22.642,VALID,260,VALID,0,
2011-01-15, 01:36:05,VALID,1008.38,VALID,0,VALID,103.848,VALID,0.105969,VALID,22.6614,VALID,260,VALID,0,
2011-01-15, 01:37:05,VALID,1008.33,VALID,0,VALID,103.87,VALID,0.105969,VALID,22.642,VALID,260,VALID,0,
2011-01-15, 01:38:05,VALID,1008.35,VALID,0,VALID,103.87,VALID,0.105969,VALID,22.6225,VALID,260,VALID,0,
2011-01-15, 01:39:05,VALID,1008.32,VALID,0,VALID,103.855,VALID,0.105969,VALID,22.603,VALID,260,VALID,0,
2011-01-15, 01:40:05,VALID,1008.32,VALID,0,VALID,103.886,VALID,0,VALID,22.6225,VALID,260,VALID,0,
2011-01-15, 01:41:05,VALID,1008.27,VALID,0,VALID,103.901,VALID,0.105969,VALID,22.6225,VALID,260,VALID,0,
2011-01-15, 01:42:05,VALID,1008.24,VALID,0,VALID,103.901,VALID,0,VALID,22.603,VALID,260,VALID,0,
2011-01-15, 01:43:05,VALID,1008.25,VALID,0,VALID,103.901,VALID,0,VALID,22.603,VALID,260,VALID,0,
2011-01-15, 01:44:05,VALID,1008.22,VALID,0,VALID,103.909,VALID,0,VALID,22.603,VALID,260,VALID,0,
2011-01-15, 01:45:05,VALID,1008.18,VALID,0,VALID,103.939,VALID,0,VALID,22.5835,VALID,260,VALID,0,
2011-01-15, 01:46:05,VALID,1008.16,VALID,0,VALID,103.939,VALID,0,VALID,22.5835,VALID,260,VALID,0,
2011-01-15, 01:47:05,VALID,1008.15,VALID,0,VALID,103.909,VALID,0,VALID,22.5835,VALID,260,VALID,0,
2011-01-15, 01:48:05,VALID,1008.17,VALID,0,VALID,103.924,VALID,0,VALID,22.5429,VALID,260,VALID,0,
2011-01-15, 01:49:05,VALID,1008.16,VALID,0,VALID,103.954,VALID,0,VALID,22.564,VALID,260,VALID,0,
2011-01-15, 01:50:05,VALID,1008.13,VALID,0,VALID,103.939,VALID,0,VALID,22.5852,VALID,260,VALID,0,
2011-01-15, 01:51:05,VALID,1008.1,VALID,0,VALID,103.939,VALID,0,VALID,22.5429,VALID,260,VALID,0,
2011-01-15, 01:52:05,VALID,1008.13,VALID,0,VALID,103.939,VALID,0,VALID,22.5446,VALID,260,VALID,0,
2011-01-15, 01:53:05,VALID,1008.08,VALID,0,VALID,103.947,VALID,0,VALID,22.5446,VALID,260,VALID,0,
2011-01-15, 01:54:05,VALID,1008.05,VALID,0,VALID,103.962,VALID,0,VALID,22.5251,VALID,260,VALID,0,
2011-01-15, 01:55:05,VALID,1008.08,VALID,0,VALID,103.954,VALID,0,VALID,22.5251,VALID,260,VALID,0,
2011-01-15, 01:56:05,VALID,1008.04,VALID,0,VALID,103.947,VALID,0,VALID,22.5251,VALID,260,VALID,0,
2011-01-15, 01:57:05,VALID,1008.09,VALID,0,VALID,103.947,VALID,0,VALID,22.5251,VALID,260,VALID,0,
2011-01-15, 01:58:05,VALID,1008.06,VALID,0,VALID,103.962,VALID,0,VALID,22.5268,VALID,260,VALID,0,
2011-01-15, 01:59:05,VALID,1008.08,VALID,0,VALID,103.962,VALID,0,VALID,22.5268,VALID,260,VALID,0,
2011-01-15, 02:00:05,VALID,1008.09,VALID,0,VALID,103.947,VALID,0,VALID,22.4861,VALID,260,VALID,0,
2011-01-15, 02:01:05,VALID,1008.12,VALID,0,VALID,103.962,VALID,0,VALID,22.5056,VALID,260,VALID,0,
2011-01-15, 02:02:05,VALID,1008.11,VALID,0,VALID,103.947,VALID,0,VALID,22.5056,VALID,260,VALID,0,
2011-01-15, 02:03:05,VALID,1008.13,VALID,0,VALID,103.939,VALID,0,VALID,22.5056,VALID,260,VALID,0,
2011-01-15, 02:04:05,VALID,1008.13,VALID,0,VALID,103.931,VALID,0,VALID,22.5251,VALID,260,VALID,0,
2011-01-15, 02:05:05,VALID,1008.11,VALID,0,VALID,103.947,VALID,0,VALID,22.5251,VALID,260,VALID,0,
2011-01-15, 02:06:05,VALID,1008.12,VALID,0,VALID,103.931,VALID,0.105969,VALID,22.5251,VALID,260,VALID,0,
2011-01-15, 02:07:05,VALID,1008.14,VALID,0,VALID,103.916,VALID,0,VALID,22.5446,VALID,260,VALID,0,
2011-01-15, 02:08:05,VALID,1008.11,VALID,0,VALID,103.924,VALID,0,VALID,22.564,VALID,260,VALID,0,
2011-01-15, 02:09:05,VALID,1008.11,VALID,0,VALID,103.924,VALID,0,VALID,22.5835,VALID,260,VALID,0,
2011-01-15, 02:10:05,VALID,1008.09,VALID,0,VALID,103.939,VALID,0,VALID,22.564,VALID,260,VALID,0.443359,
2011-01-15, 02:11:05,VALID,1008.09,VALID,0,VALID,103.901,VALID,0,VALID,22.564,VALID,260,VALID,0.400391,
2011-01-15, 02:12:05,VALID,1008.1,VALID,0,VALID,103.916,VALID,0,VALID,22.564,VALID,260,VALID,0.196875,
2011-01-15, 02:13:05,VALID,1008.09,VALID,0,VALID,103.947,VALID,0,VALID,22.564,VALID,260,VALID,0,
2011-01-15, 02:14:05,VALID,1008.12,VALID,0,VALID,103.947,VALID,0,VALID,22.564,VALID,260,VALID,0,
2011-01-15, 02:15:05,VALID,1008.12,VALID,0,VALID,103.939,VALID,0,VALID,22.5251,VALID,260,VALID,0,
2011-01-15, 02:16:05,VALID,1008.11,VALID,0,VALID,103.939,VALID,0,VALID,22.5251,VALID,260,VALID,0,
2011-01-15, 02:17:05,VALID,1008.1,VALID,0,VALID,103.97,VALID,0,VALID,22.5056,VALID,260,VALID,0,
2011-01-15, 02:18:05,VALID,1008.08,VALID,0,VALID,103.947,VALID,0,VALID,22.5251,VALID,260,VALID,0.151953,
2011-01-15, 02:19:05,VALID,1008.09,VALID,0,VALID,103.947,VALID,0,VALID,22.5056,VALID,260,VALID,0.194141,
2011-01-15, 02:20:05,VALID,1008.06,VALID,0,VALID,103.931,VALID,0,VALID,22.5056,VALID,260,VALID,0.230078,
2011-01-15, 02:21:05,VALID,1008.07,VALID,0,VALID,103.939,VALID,0,VALID,22.5056,VALID,260,VALID,0.238281,
2011-01-15, 02:22:05,VALID,1008.08,VALID,0,VALID,103.916,VALID,0,VALID,22.5056,VALID,260,VALID,0.138281,
2011-01-15, 02:23:05,VALID,1008.05,VALID,0,VALID,103.939,VALID,0,VALID,22.5056,VALID,260,VALID,0,
2011-01-15, 02:24:05,VALID,1008.06,VALID,0,VALID,103.924,VALID,0,VALID,22.5251,VALID,260,VALID,0.31875,
2011-01-15, 02:25:05,VALID,1008.04,VALID,0,VALID,103.909,VALID,0,VALID,22.5463,VALID,260,VALID,0.107813,
2011-01-15, 02:26:05,VALID,1008.03,VALID,0,VALID,103.901,VALID,0,VALID,22.5463,VALID,260,VALID,0.00507812,
2011-01-15, 02:27:05,VALID,1008.02,VALID,0,VALID,103.916,VALID,0,VALID,22.5463,VALID,260,VALID,0.0375,
2011-01-15, 02:28:05,VALID,1007.98,VALID,0,VALID,103.924,VALID,0,VALID,22.5446,VALID,260,VALID,0,
2011-01-15, 02:29:05,VALID,1008,VALID,0,VALID,103.909,VALID,0,VALID,22.5446,VALID,260,VALID,0,
2011-01-15, 02:30:05,VALID,1008,VALID,0,VALID,103.901,VALID,0,VALID,22.5446,VALID,260,VALID,0,
2011-01-15, 02:31:05,VALID,1007.98,VALID,0,VALID,103.916,VALID,0,VALID,22.5446,VALID,260,VALID,0,
2011-01-15, 02:32:05,VALID,1007.97,VALID,0,VALID,103.916,VALID,0,VALID,22.5658,VALID,317,VALID,0.478906,
2011-01-15, 02:33:05,VALID,1007.97,VALID,0,VALID,103.916,VALID,0,VALID,22.564,VALID,43,VALID,0.533984,
2011-01-15, 02:34:05,VALID,1007.94,VALID,0,VALID,103.916,VALID,0,VALID,22.564,VALID,43,VALID,0.323828,
2011-01-15, 02:35:05,VALID,1007.93,VALID,0,VALID,103.916,VALID,0,VALID,22.5446,VALID,43,VALID,0.203906,
2011-01-15, 02:36:05,VALID,1007.91,VALID,0,VALID,103.916,VALID,0,VALID,22.564,VALID,43,VALID,0.148438,
2011-01-15, 02:37:05,VALID,1007.91,VALID,0,VALID,103.909,VALID,0,VALID,22.5852,VALID,43,VALID,0.351563,
2011-01-15, 02:38:05,VALID,1007.87,VALID,0,VALID,103.909,VALID,0,VALID,22.5835,VALID,43,VALID,0.509375,
2011-01-15, 02:39:05,VALID,1007.87,VALID,0,VALID,103.886,VALID,0,VALID,22.5835,VALID,52,VALID,0.708984,
2011-01-15, 02:40:05,VALID,1007.82,VALID,0,VALID,103.901,VALID,0,VALID,22.5835,VALID,52,VALID,0.580469,
2011-01-15, 02:41:05,VALID,1007.81,VALID,0,VALID,103.878,VALID,0,VALID,22.603,VALID,59,VALID,0.527734,
2011-01-15, 02:42:05,VALID,1007.81,VALID,0,VALID,103.878,VALID,0,VALID,22.6437,VALID,68,VALID,0.423047,
2011-01-15, 02:43:05,VALID,1007.82,VALID,0,VALID,103.855,VALID,0,VALID,22.6225,VALID,69,VALID,0.213672,
2011-01-15, 02:44:05,VALID,1007.79,VALID,0,VALID,103.855,VALID,0,VALID,22.642,VALID,69,VALID,0.140625,
2011-01-15, 02:45:05,VALID,1007.8,VALID,0,VALID,103.863,VALID,0,VALID,22.642,VALID,69,VALID,0,
2011-01-15, 02:46:05,VALID,1007.79,VALID,0,VALID,103.878,VALID,0,VALID,22.642,VALID,69,VALID,0.108203,
2011-01-15, 02:47:05,VALID,1007.74,VALID,0,VALID,103.901,VALID,0,VALID,22.6437,VALID,69,VALID,0.225,
2011-01-15, 02:48:04,VALID,1007.74,VALID,0,VALID,103.878,VALID,0,VALID,22.6225,VALID,69,VALID,0.0203125,
2011-01-15, 02:49:04,VALID,1007.75,VALID,0,VALID,103.886,VALID,0,VALID,22.6225,VALID,69,VALID,0.178906,
2011-01-15, 02:50:04,VALID,1007.77,VALID,0,VALID,103.878,VALID,0,VALID,22.6225,VALID,69,VALID,0,
2011-01-15, 02:51:04,VALID,1007.74,VALID,0,VALID,103.886,VALID,0,VALID,22.6225,VALID,69,VALID,0,
2011-01-15, 02:52:04,VALID,1007.76,VALID,0,VALID,103.886,VALID,0,VALID,22.6437,VALID,69,VALID,0,
2011-01-15, 02:53:04,VALID,1007.76,VALID,0,VALID,103.886,VALID,0,VALID,22.6437,VALID,69,VALID,0,
2011-01-15, 02:54:04,VALID,1007.79,VALID,0,VALID,103.893,VALID,0,VALID,22.6437,VALID,69,VALID,0,
2011-01-15, 02:55:04,VALID,1007.79,VALID,0,VALID,103.878,VALID,0,VALID,22.6437,VALID,69,VALID,0,
2011-01-15, 02:56:04,VALID,1007.76,VALID,0,VALID,103.893,VALID,0,VALID,22.6225,VALID,69,VALID,0,
2011-01-15, 02:57:04,VALID,1007.78,VALID,0,VALID,103.87,VALID,0,VALID,22.6225,VALID,69,VALID,0,
2011-01-15, 02:58:04,VALID,1007.76,VALID,0,VALID,103.901,VALID,0,VALID,22.6225,VALID,69,VALID,0,
2011-01-15, 02:59:04,VALID,1007.76,VALID,0,VALID,103.893,VALID,0,VALID,22.6437,VALID,69,VALID,0,
2011-01-15, 03:00:04,VALID,1007.73,VALID,0,VALID,103.901,VALID,0,VALID,22.603,VALID,69,VALID,0,
2011-01-15, 03:01:04,VALID,1007.73,VALID,0,VALID,103.893,VALID,0,VALID,22.6225,VALID,69,VALID,0,
2011-01-15, 03:02:04,VALID,1007.73,VALID,0,VALID,103.878,VALID,0,VALID,22.6225,VALID,69,VALID,0,
2011-01-15, 03:03:04,VALID,1007.78,VALID,0,VALID,103.878,VALID,0,VALID,22.6437,VALID,69,VALID,0,
2011-01-15, 03:04:04,VALID,1007.78,VALID,0,VALID,103.878,VALID,0,VALID,22.6225,VALID,69,VALID,0,
2011-01-15, 03:05:04,VALID,1007.77,VALID,0,VALID,103.886,VALID,0,VALID,22.6437,VALID,69,VALID,0,
2011-01-15, 03:06:04,VALID,1007.73,VALID,0,VALID,103.886,VALID,0,VALID,22.6225,VALID,69,VALID,0,
2011-01-15, 03:07:04,VALID,1007.75,VALID,0,VALID,103.863,VALID,0,VALID,22.6225,VALID,69,VALID,0,
2011-01-15, 03:08:04,VALID,1007.75,VALID,0,VALID,103.87,VALID,0,VALID,22.642,VALID,69,VALID,0,
2011-01-15, 03:09:04,VALID,1007.76,VALID,0,VALID,103.855,VALID,0,VALID,22.6614,VALID,69,VALID,0,
2011-01-15, 03:10:04,VALID,1007.73,VALID,0,VALID,103.825,VALID,0,VALID,22.7021,VALID,69,VALID,0.00351562,
2011-01-15, 03:11:04,VALID,1007.7,VALID,0,VALID,103.848,VALID,0,VALID,22.7004,VALID,69,VALID,0.0179687,
2011-01-15, 03:12:04,VALID,1007.67,VALID,0,VALID,103.832,VALID,0,VALID,22.7004,VALID,69,VALID,0,
2011-01-15, 03:13:04,VALID,1007.63,VALID,0,VALID,103.848,VALID,0,VALID,22.6809,VALID,69,VALID,0,
2011-01-15, 03:14:04,VALID,1007.63,VALID,0,VALID,103.855,VALID,0,VALID,22.6809,VALID,69,VALID,0,
2011-01-15, 03:15:04,VALID,1007.62,VALID,0,VALID,103.848,VALID,0,VALID,22.6809,VALID,69,VALID,0,
2011-01-15, 03:16:04,VALID,1007.61,VALID,0,VALID,103.832,VALID,0,VALID,22.7004,VALID,69,VALID,0,
2011-01-15, 03:17:04,VALID,1007.62,VALID,0,VALID,103.848,VALID,0,VALID,22.6809,VALID,69,VALID,0,
2011-01-15, 03:18:04,VALID,1007.6,VALID,0,VALID,103.863,VALID,0,VALID,22.6809,VALID,69,VALID,0,
2011-01-15, 03:19:04,VALID,1007.6,VALID,0,VALID,103.84,VALID,0,VALID,22.6809,VALID,69,VALID,0,
2011-01-15, 03:20:04,VALID,1007.62,VALID,0,VALID,103.848,VALID,0,VALID,22.6809,VALID,69,VALID,0,
2011-01-15, 03:21:04,VALID,1007.6,VALID,0,VALID,103.848,VALID,0,VALID,22.6614,VALID,69,VALID,0,
2011-01-15, 03:22:04,VALID,1007.63,VALID,0,VALID,103.84,VALID,0,VALID,22.6809,VALID,69,VALID,0,
2011-01-15, 03:23:04,VALID,1007.6,VALID,0,VALID,103.802,VALID,0,VALID,22.6809,VALID,69,VALID,0,
2011-01-15, 03:24:04,VALID,1007.64,VALID,0,VALID,103.825,VALID,0,VALID,22.7004,VALID,69,VALID,0,
2011-01-15, 03:25:04,VALID,1007.65,VALID,0,VALID,103.825,VALID,0,VALID,22.6809,VALID,69,VALID,0,
2011-01-15, 03:26:04,VALID,1007.63,VALID,0,VALID,103.84,VALID,0.105969,VALID,22.6597,VALID,69,VALID,0,
2011-01-15, 03:27:04,VALID,1007.66,VALID,0,VALID,103.825,VALID,0,VALID,22.7216,VALID,69,VALID,0,
2011-01-15, 03:28:04,VALID,1007.65,VALID,0,VALID,103.84,VALID,0,VALID,22.6809,VALID,69,VALID,0,
2011-01-15, 03:29:04,VALID,1007.65,VALID,0,VALID,103.817,VALID,0,VALID,22.6809,VALID,69,VALID,0,
2011-01-15, 03:30:04,VALID,1007.65,VALID,0,VALID,103.802,VALID,0,VALID,22.6809,VALID,69,VALID,0,
2011-01-15, 03:31:04,VALID,1007.67,VALID,0,VALID,103.809,VALID,0,VALID,22.6809,VALID,69,VALID,0,
2011-01-15, 03:32:04,VALID,1007.64,VALID,0,VALID,103.825,VALID,0,VALID,22.6809,VALID,69,VALID,0,
2011-01-15, 03:33:04,VALID,1007.65,VALID,0,VALID,103.832,VALID,0,VALID,22.6614,VALID,69,VALID,0,
2011-01-15, 03:34:04,VALID,1007.64,VALID,0,VALID,103.825,VALID,0,VALID,22.6614,VALID,69,VALID,0,
2011-01-15, 03:35:04,VALID,1007.64,VALID,0,VALID,103.84,VALID,0,VALID,22.6614,VALID,69,VALID,0,
2011-01-15, 03:36:04,VALID,1007.65,VALID,0,VALID,103.817,VALID,0,VALID,22.642,VALID,69,VALID,0,
2011-01-15, 03:37:04,VALID,1007.66,VALID,0,VALID,103.84,VALID,0,VALID,22.6826,VALID,69,VALID,0,
2011-01-15, 03:38:04,VALID,1007.67,VALID,0,VALID,103.825,VALID,0,VALID,22.6826,VALID,69,VALID,0,
2011-01-15, 03:39:04,VALID,1007.67,VALID,0,VALID,103.825,VALID,0,VALID,22.6826,VALID,69,VALID,0,
2011-01-15, 03:40:04,VALID,1007.72,VALID,0,VALID,103.817,VALID,0.105969,VALID,22.6614,VALID,69,VALID,0,
2011-01-15, 03:41:04,VALID,1007.73,VALID,0,VALID,103.802,VALID,0,VALID,22.6614,VALID,69,VALID,0.145703,
2011-01-15, 03:42:04,VALID,1007.76,VALID,0,VALID,103.794,VALID,0,VALID,22.6614,VALID,69,VALID,0,
2011-01-15, 03:43:04,VALID,1007.76,VALID,0,VALID,103.809,VALID,0,VALID,22.6826,VALID,69,VALID,0,
2011-01-15, 03:44:04,VALID,1007.76,VALID,0,VALID,103.802,VALID,0,VALID,22.6614,VALID,69,VALID,0,
2011-01-15, 03:45:04,VALID,1007.77,VALID,0,VALID,103.802,VALID,0,VALID,22.642,VALID,69,VALID,0.137109,
2011-01-15, 03:46:04,VALID,1007.77,VALID,0,VALID,103.817,VALID,0,VALID,22.642,VALID,69,VALID,0.142578,
2011-01-15, 03:47:04,VALID,1007.77,VALID,0,VALID,103.825,VALID,0,VALID,22.642,VALID,69,VALID,0,
2011-01-15, 03:48:04,VALID,1007.76,VALID,0,VALID,103.817,VALID,0,VALID,22.6632,VALID,69,VALID,0,
2011-01-15, 03:49:04,VALID,1007.79,VALID,0,VALID,103.794,VALID,0,VALID,22.6632,VALID,69,VALID,0,
2011-01-15, 03:50:04,VALID,1007.8,VALID,0,VALID,103.809,VALID,0.105969,VALID,22.642,VALID,69,VALID,0,
2011-01-15, 03:51:04,VALID,1007.81,VALID,0,VALID,103.809,VALID,0,VALID,22.6437,VALID,69,VALID,0,
2011-01-15, 03:52:04,VALID,1007.82,VALID,0,VALID,103.802,VALID,0,VALID,22.6225,VALID,69,VALID,0.108203,
2011-01-15, 03:53:04,VALID,1007.82,VALID,0,VALID,103.809,VALID,0,VALID,22.6225,VALID,69,VALID,0.190234,
2011-01-15, 03:54:04,VALID,1007.83,VALID,0,VALID,103.794,VALID,0,VALID,22.6225,VALID,69,VALID,0,